CW2972 Weather Reports


Display with metric or nautical units.
time (UTC)temp
F
wind
direction
speed
MPH
gust
MPH
rain 1hr
in
rain 24hr
in
rain mn
in
humidity
%
barometer
mb
20260510203219 79 302 1.0 4.0 0.00 0.00 0.00 61 1016.7
20260510203019 79 283 2.0 5.0 0.00 0.00 0.00 60 1016.7
20260510202840 79 283 2.0 5.0 0.00 0.00 0.00 61 1016.7
20260510202640 79 285 2.0 5.0 0.00 0.00 0.00 60 1016.7
20260510202440 79 288 1.0 7.0 0.00 0.00 0.00 60 1016.8
20260510202219 79 287 1.0 7.0 0.00 0.00 0.00 59 1016.8
20260510202019 79 296 1.0 7.0 0.00 0.00 0.00 59 1016.8
20260510201819 79 297 1.0 7.0 0.00 0.00 0.00 59 1016.8
20260510201619 79 314 1.0 7.0 0.00 0.00 0.00 58 1016.8
20260510201419 79 316 1.0 5.0 0.00 0.00 0.00 60 1016.8
20260510201219 79 6 1.0 5.0 0.00 0.00 0.00 60 1016.8
20260510201040 79 79 1.0 4.0 0.00 0.00 0.00 59 1016.8
20260510200819 79 77 1.0 4.0 0.00 0.00 0.00 60 1016.8
20260510200620 79 107 1.0 4.0 0.00 0.00 0.00 59 1016.8
20260510200419 79 283 1.0 4.0 0.00 0.00 0.00 61 1016.8
20260510200219 79 280 1.0 4.0 0.00 0.00 0.00 60 1016.8
20260510200040 79 280 1.0 4.0 0.00 0.00 0.00 60 1016.8
20260510195840 79 280 1.0 4.0 0.00 0.00 0.00 59 1016.8
20260510195619 79 281 1.0 4.0 0.00 0.00 0.00 59 1016.8
20260510195419 79 290 1.0 4.0 0.00 0.00 0.00 60 1016.8
20260510195219 79 301 1.0 4.0 0.00 0.00 0.00 59 1016.8
20260510195040 79 294 1.0 4.0 0.00 0.00 0.00 59 1016.8
20260510194819 79 300 1.0 4.0 0.00 0.00 0.00 59 1016.8
20260510194619 79 317 1.0 4.0 0.00 0.00 0.00 59 1016.8
20260510194419 79 325 1.0 4.0 0.00 0.00 0.00 60 1016.8
20260510194219 79 305 1.0 4.0 0.00 0.00 0.00 59 1016.8
20260510194019 79 318 1.0 4.0 0.00 0.00 0.00 59 1016.8
20260510193819 79 308 1.0 4.0 0.00 0.00 0.00 60 1016.8
20260510193619 79 286 1.0 4.0 0.00 0.00 0.00 61 1016.9
20260510193419 79 282 1.0 4.0 0.00 0.00 0.00 59 1016.9
20260510193219 79 283 1.0 4.0 0.00 0.00 0.00 60 1016.9
20260510193019 79 284 1.0 4.0 0.00 0.00 0.00 59 1016.9
20260510192819 79 279 1.0 4.0 0.00 0.00 0.00 59 1016.8
20260510192619 79 283 1.0 3.0 0.00 0.00 0.00 60 1016.9
20260510192419 79 287 1.0 3.0 0.00 0.00 0.00 59 1016.9
20260510192240 79 287 1.0 3.0 0.00 0.00 0.00 61 1016.9
20260510192019 79 284 1.0 4.0 0.00 0.00 0.00 60 1016.8
20260510191819 79 285 0.0 4.0 0.00 0.00 0.00 60 1016.8
20260510191619 79 285 0.0 4.0 0.00 0.00 0.00 58 1016.8
20260510191440 79 284 0.0 4.0 0.00 0.00 0.00 59 1016.8
20260510191219 79 280 0.0 4.0 0.00 0.00 0.00 58 1016.8
20260510191019 79 277 0.0 2.0 0.00 0.00 0.00 58 1016.8
20260510190840 79 263 0.0 1.0 0.00 0.00 0.00 58 1016.7
20260510190619 79 249 0.0 1.0 0.00 0.00 0.00 58 1016.7
20260510190419 79 252 0.0 3.0 0.00 0.00 0.00 59 1016.7
20260510190240 79 251 0.0 3.0 0.00 0.00 0.00 59 1016.7
20260510190020 78 251 1.0 3.0 0.00 0.00 0.00 60 1016.7
20260510185819 78 285 1.0 3.0 0.00 0.00 0.00 59 1016.7
20260510185619 78 302 1.0 3.0 0.00 0.00 0.00 61 1016.8
20260510185419 78 306 1.0 4.0 0.00 0.00 0.00 61 1016.8
20260510185219 78 297 1.0 4.0 0.00 0.00 0.00 60 1016.8
20260510185040 78 293 1.0 4.0 0.00 0.00 0.00 60 1016.8
20260510184819 78 279 1.0 4.0 0.00 0.00 0.00 60 1016.8
20260510184619 78 276 1.0 4.0 0.00 0.00 0.00 60 1016.8
20260510184419 78 282 1.0 4.0 0.00 0.00 0.00 60 1016.8
20260510184219 78 286 1.0 4.0 0.00 0.00 0.00 59 1016.8
20260510184040 78 290 1.0 4.0 0.00 0.00 0.00 59 1016.9
20260510183819 78 295 1.0 4.0 0.00 0.00 0.00 59 1016.9
20260510183619 78 304 1.0 4.0 0.00 0.00 0.00 59 1016.9
20260510183419 78 293 1.0 4.0 0.00 0.00 0.00 60 1016.9
20260510183240 78 289 1.0 4.0 0.00 0.00 0.00 58 1016.9
20260510183019 78 285 1.0 4.0 0.00 0.00 0.00 58 1016.9
20260510182819 78 288 1.0 3.0 0.00 0.00 0.00 61 1016.9
20260510182619 78 284 1.0 4.0 0.00 0.00 0.00 59 1016.9
20260510182420 78 284 1.0 4.0 0.00 0.00 0.00 58 1017.0
20260510182240 78 282 1.0 4.0 0.00 0.00 0.00 58 1017.0
20260510182019 78 303 1.0 4.0 0.00 0.00 0.00 61 1017.0
20260510181820 78 322 1.0 4.0 0.00 0.00 0.00 60 1017.0
20260510181620 78 341 1.0 4.0 0.00 0.00 0.00 61 1016.9
20260510181440 78 347 1.0 4.0 0.00 0.00 0.00 62 1017.0
20260510181219 78 341 1.0 4.0 0.00 0.00 0.00 61 1017.0
20260510181019 78 307 1.0 4.0 0.00 0.00 0.00 60 1017.0
20260510180840 78 271 1.0 3.0 0.00 0.00 0.00 60 1017.0
20260510180619 78 266 1.0 3.0 0.00 0.00 0.00 61 1017.0
20260510180419 78 261 1.0 3.0 0.00 0.00 0.00 59 1017.0
20260510180219 78 262 1.0 2.0 0.00 0.00 0.00 61 1017.1
20260510180019 78 269 1.0 2.0 0.00 0.00 0.00 59 1017.1
20260510175840 78 279 1.0 2.0 0.00 0.00 0.00 58 1017.1
20260510175619 77 278 1.0 5.0 0.00 0.00 0.00 59 1017.2
20260510175420 77 281 1.0 5.0 0.00 0.00 0.00 60 1017.2
20260510175219 77 279 1.0 5.0 0.00 0.00 0.00 60 1017.2
20260510175019 77 281 1.0 5.0 0.00 0.00 0.00 60 1017.2
20260510174819 77 281 1.0 4.0 0.00 0.00 0.00 60 1017.3
20260510174619 77 275 1.0 4.0 0.00 0.00 0.00 59 1017.3
20260510174440 77 268 1.0 4.0 0.00 0.00 0.00 59 1017.3
20260510174219 77 273 1.0 4.0 0.00 0.00 0.00 60 1017.3
20260510174019 77 258 1.0 4.0 0.00 0.00 0.00 60 1017.3
20260510173820 77 252 1.0 4.0 0.00 0.00 0.00 60 1017.3
20260510173619 77 271 1.0 4.0 0.00 0.00 0.00 61 1017.4
20260510173419 77 275 1.0 5.0 0.00 0.00 0.00 61 1017.4
20260510173219 77 277 1.0 5.0 0.00 0.00 0.00 60 1017.4
20260510173019 76 281 1.0 5.0 0.00 0.00 0.00 61 1017.5
20260510172840 76 285 1.0 5.0 0.00 0.00 0.00 60 1017.5
20260510172619 76 282 1.0 5.0 0.00 0.00 0.00 60 1017.5
20260510172440 77 282 1.0 4.0 0.00 0.00 0.00 62 1017.5
20260510172240 76 281 1.0 4.0 0.00 0.00 0.00 62 1017.5
20260510172019 76 276 1.0 4.0 0.00 0.00 0.00 62 1017.4
20260510171819 76 274 1.0 4.0 0.00 0.00 0.00 60 1017.5
20260510171640 76 273 1.0 4.0 0.00 0.00 0.00 61 1017.4
20260510171419 76 274 1.0 4.0 0.00 0.00 0.00 61 1017.5
20260510171240 76 275 1.0 4.0 0.00 0.00 0.00 62 1017.5
20260510171040 76 277 1.0 6.0 0.00 0.00 0.00 63 1017.6
20260510170819 75 276 1.0 6.0 0.00 0.00 0.00 64 1017.6
20260510170640 75 277 2.0 6.0 0.00 0.00 0.00 65 1017.6
20260510170419 75 279 2.0 6.0 0.00 0.00 0.00 64 1017.6
20260510170219 75 280 2.0 5.0 0.00 0.00 0.00 63 1017.6
20260510170019 75 280 2.0 5.0 0.00 0.00 0.00 63 1017.6
20260510165819 75 287 2.0 7.0 0.00 0.00 0.00 62 1017.6
20260510165640 75 288 2.0 7.0 0.00 0.00 0.00 63 1017.6
20260510165419 75 287 2.0 7.0 0.00 0.00 0.00 65 1017.6
20260510165219 75 286 2.0 7.0 0.00 0.00 0.00 65 1017.6
20260510165019 75 286 2.0 7.0 0.00 0.00 0.00 66 1017.6
20260510164819 75 279 2.0 4.0 0.00 0.00 0.00 65 1017.5
20260510164619 75 279 2.0 4.0 0.00 0.00 0.00 65 1017.5
20260510164419 75 278 1.0 4.0 0.00 0.00 0.00 66 1017.4
20260510164219 75 279 1.0 5.0 0.00 0.00 0.00 65 1017.4
20260510164019 75 279 1.0 5.0 0.00 0.00 0.00 64 1017.4
20260510163819 75 280 1.0 5.0 0.00 0.00 0.00 64 1017.4
20260510163619 75 280 1.0 5.0 0.00 0.00 0.00 63 1017.4
20260510163419 76 282 1.0 5.0 0.00 0.00 0.00 63 1017.3
20260510163219 76 280 1.0 3.0 0.00 0.00 0.00 64 1017.3
20260510163019 76 279 1.0 3.0 0.00 0.00 0.00 63 1017.3
20260510162819 76 284 1.0 3.0 0.00 0.00 0.00 64 1017.3
20260510162619 76 284 1.0 3.0 0.00 0.00 0.00 63 1017.3
20260510162419 76 283 1.0 3.0 0.00 0.00 0.00 62 1017.3
20260510162219 76 285 1.0 4.0 0.00 0.00 0.00 62 1017.2
20260510162019 77 283 1.0 4.0 0.00 0.00 0.00 62 1017.2
20260510161819 77 279 1.0 4.0 0.00 0.00 0.00 61 1017.2
20260510161619 77 281 1.0 4.0 0.00 0.00 0.00 61 1017.2
20260510161420 77 281 1.0 4.0 0.00 0.00 0.00 61 1017.2
20260510161219 78 270 1.0 4.0 0.00 0.00 0.00 62 1017.3
20260510161019 78 270 1.0 4.0 0.00 0.00 0.00 61 1017.3
20260510160819 78 268 1.0 4.0 0.00 0.00 0.00 60 1017.2
20260510160619 78 251 1.0 3.0 0.00 0.00 0.00 58 1017.1
20260510160419 79 233 1.0 3.0 0.00 0.00 0.00 57 1017.1
20260510160219 79 236 1.0 3.0 0.00 0.00 0.00 57 1017.0
20260510160019 79 239 1.0 3.0 0.00 0.00 0.00 57 1017.0
20260510155819 79 248 1.0 3.0 0.00 0.00 0.00 58 1017.0
20260510155619 79 262 1.0 3.0 0.00 0.00 0.00 57 1016.9
20260510155419 79 283 1.0 3.0 0.00 0.00 0.00 58 1016.8
20260510155219 79 285 1.0 4.0 0.00 0.00 0.00 59 1016.8
20260510155040 79 281 1.0 4.0 0.00 0.00 0.00 59 1016.7
20260510154819 79 280 1.0 4.0 0.00 0.00 0.00 58 1016.7
20260510154619 80 275 1.0 4.0 0.00 0.00 0.00 58 1016.6
20260510154419 80 270 1.0 4.0 0.00 0.00 0.00 56 1016.6
20260510154219 80 271 1.0 4.0 0.00 0.00 0.00 57 1016.6
20260510154019 80 265 1.0 4.0 0.00 0.00 0.00 57 1016.6
20260510153819 80 259 1.0 4.0 0.00 0.00 0.00 57 1016.6
20260510153619 80 251 1.0 4.0 0.00 0.00 0.00 56 1016.6
20260510153419 80 246 1.0 4.0 0.00 0.00 0.00 55 1016.5
20260510153219 80 228 1.0 2.0 0.00 0.00 0.00 56 1016.5
20260510153019 80 229 1.0 2.0 0.00 0.00 0.00 57 1016.4
20260510152819 80 232 1.0 4.0 0.00 0.00 0.00 58 1016.5
20260510152619 80 235 1.0 4.0 0.00 0.00 0.00 57 1016.4
20260510152419 80 234 1.0 4.0 0.00 0.00 0.00 58 1016.4
20260510152220 79 235 1.0 4.0 0.00 0.00 0.00 58 1016.4
20260510152019 79 233 1.0 4.0 0.00 0.00 0.00 57 1016.4
20260510151819 79 232 1.0 3.0 0.00 0.00 0.00 57 1016.4
20260510151619 79 227 1.0 3.0 0.00 0.00 0.00 57 1016.4
20260510151419 79 217 1.0 3.0 0.00 0.00 0.00 59 1016.4
20260510151219 79 210 1.0 3.0 0.00 0.00 0.00 61 1016.4
20260510151020 79 209 1.0 3.0 0.00 0.00 0.00 61 1016.4
20260510150819 79 211 1.0 4.0 0.00 0.00 0.00 61 1016.4
20260510150619 79 216 1.0 4.0 0.00 0.00 0.00 62 1016.4
20260510150419 78 219 1.0 4.0 0.00 0.00 0.00 63 1016.4
20260510150219 78 221 1.0 4.0 0.00 0.00 0.00 64 1016.4
20260510150040 77 218 1.0 4.0 0.00 0.00 0.00 66 1016.4
20260510145819 77 217 1.0 4.0 0.00 0.00 0.00 64 1016.4
20260510145619 76 213 1.0 3.0 0.00 0.00 0.00 66 1016.4
20260510145420 75 221 0.0 3.0 0.00 0.00 0.00 67 1016.4
20260510145219 75 221 0.0 3.0 0.00 0.00 0.00 67 1016.5
20260510145040 74 226 0.0 2.0 0.00 0.00 0.00 69 1016.5
20260510144840 74 226 0.0 2.0 0.00 0.00 0.00 70 1016.5
20260510144640 73 229 0.0 2.0 0.00 0.00 0.00 69 1016.5
20260510144419 73 215 0.0 2.0 0.00 0.00 0.00 70 1016.5
20260510144240 72 211 0.0 1.0 0.00 0.00 0.00 71 1016.5
20260510144019 72 215 0.0 1.0 0.00 0.00 0.00 72 1016.5
20260510143819 72 213 0.0 1.0 0.00 0.00 0.00 72 1016.5
20260510143619 71 219 0.0 1.0 0.00 0.00 0.00 72 1016.5
20260510143419 71 219 0.0 1.0 0.00 0.00 0.00 72 1016.4
20260510143219 71 219 0.0 1.0 0.00 0.00 0.00 71 1016.4
20260510143019 71 220 0.0 3.0 0.00 0.00 0.00 71 1016.5
20260510142819 71 220 0.0 3.0 0.00 0.00 0.00 72 1016.5
20260510142619 71 217 0.0 3.0 0.00 0.00 0.00 72 1016.4
20260510142419 71 218 0.0 3.0 0.00 0.00 0.00 71 1016.4
20260510142219 71 221 0.0 3.0 0.00 0.00 0.00 71 1016.5
20260510142019 71 222 0.0 2.0 0.00 0.00 0.00 71 1016.5
20260510141819 71 222 0.0 2.0 0.00 0.00 0.00 71 1016.5
20260510141619 71 224 0.0 2.0 0.00 0.00 0.00 71 1016.4
20260510141419 71 227 0.0 2.0 0.00 0.00 0.00 71 1016.4
20260510141219 71 222 0.0 1.0 0.00 0.00 0.00 71 1016.5
20260510141019 71 227 0.0 2.0 0.00 0.00 0.00 71 1016.5
20260510140819 71 221 0.0 2.0 0.00 0.00 0.00 71 1016.5
20260510140619 71 221 0.0 2.0 0.00 0.00 0.00 71 1016.5
20260510140419 71 222 0.0 2.0 0.00 0.00 0.00 70 1016.4
20260510140240 72 223 0.0 2.0 0.00 0.00 0.00 70 1016.5
20260510140019 72 221 0.0 2.0 0.00 0.00 0.00 71 1016.5
20260510135819 72 225 0.0 2.0 0.00 0.00 0.00 71 1016.5
20260510135619 72 227 0.0 2.0 0.00 0.00 0.00 72 1016.5
20260510135419 72 225 0.0 2.0 0.00 0.00 0.00 72 1016.5
20260510135220 71 222 0.0 2.0 0.00 0.00 0.00 72 1016.5
20260510135019 71 0 0.0 0.0 0.00 0.00 0.00 73 1016.5
20260510134819 71 0 0.0 0.0 0.00 0.00 0.00 73 1016.4
20260510134619 70 0 0.0 0.0 0.00 0.00 0.00 76 1016.4
20260510134419 70 0 0.0 0.0 0.00 0.00 0.00 77 1016.4
20260510134219 69 0 0.0 0.0 0.00 0.00 0.00 77 1016.5
20260510134019 69 0 0.0 0.0 0.00 0.00 0.00 77 1016.4
20260510133819 69 0 0.0 0.0 0.00 0.00 0.00 76 1016.4
20260510133619 69 0 0.0 0.0 0.00 0.00 0.00 76 1016.4
20260510133419 69 0 0.0 0.0 0.00 0.00 0.00 77 1016.4
20260510133219 69 0 0.0 0.0 0.00 0.00 0.00 77 1016.4
20260510133019 69 0 0.0 0.0 0.00 0.00 0.00 78 1016.4
20260510132819 68 0 0.0 0.0 0.00 0.00 0.00 78 1016.4
20260510132619 68 0 0.0 0.0 0.00 0.00 0.00 78 1016.4
20260510132419 68 0 0.0 0.0 0.00 0.00 0.00 78 1016.4
20260510132219 68 0 0.0 0.0 0.00 0.00 0.00 79 1016.4
20260510132019 68 0 0.0 0.0 0.00 0.00 0.00 79 1016.4
20260510131819 67 0 0.0 0.0 0.00 0.00 0.00 79 1016.5
20260510131619 67 0 0.0 0.0 0.00 0.00 0.00 78 1016.5
20260510131419 67 0 0.0 0.0 0.00 0.00 0.00 78 1016.5
20260510131219 67 0 0.0 0.0 0.00 0.00 0.00 79 1016.4
20260510131020 67 0 0.0 0.0 0.00 0.00 0.00 79 1016.4
20260510130840 66 0 0.0 0.0 0.00 0.00 0.00 79 1016.4
20260510130619 66 0 0.0 0.0 0.00 0.00 0.00 81 1016.4
20260510130419 66 0 0.0 0.0 0.00 0.00 0.00 81 1016.5
20260510130219 65 0 0.0 0.0 0.00 0.00 0.00 82 1016.4
20260510130040 65 0 0.0 0.0 0.00 0.00 0.00 83 1016.4
20260510125819 65 0 0.0 0.0 0.00 0.00 0.00 83 1016.4
20260510125640 64 0 0.0 0.0 0.00 0.00 0.00 84 1016.3
20260510125420 64 0 0.0 0.0 0.00 0.00 0.00 84 1016.3
20260510125219 63 0 0.0 0.0 0.00 0.00 0.00 85 1016.3
20260510125019 63 0 0.0 0.0 0.00 0.00 0.00 85 1016.3
20260510124819 63 0 0.0 0.0 0.00 0.00 0.00 85 1016.2
20260510124619 62 0 0.0 0.0 0.00 0.00 0.00 85 1016.2
20260510124419 62 0 0.0 0.0 0.00 0.00 0.00 86 1016.2
20260510124219 62 0 0.0 0.0 0.00 0.00 0.00 86 1016.1
20260510124019 62 0 0.0 0.0 0.00 0.00 0.00 86 1016.0
20260510123819 61 0 0.0 0.0 0.00 0.00 0.00 86 1016.0
20260510123619 61 0 0.0 0.0 0.00 0.00 0.00 87 1016.1
20260510123419 61 0 0.0 0.0 0.00 0.00 0.00 87 1016.0
20260510123219 60 0 0.0 0.0 0.00 0.00 0.00 87 1015.8
20260510123040 60 0 0.0 0.0 0.00 0.00 0.00 87 1015.7
20260510122840 60 0 0.0 0.0 0.00 0.00 0.00 87 1015.7
20260510122619 60 0 0.0 0.0 0.00 0.00 0.00 87 1015.6
20260510122419 60 0 0.0 0.0 0.00 0.00 0.00 88 1015.6
20260510122220 59 0 0.0 0.0 0.00 0.00 0.00 88 1015.7
20260510122019 59 0 0.0 0.0 0.00 0.00 0.00 88 1015.7
20260510121819 59 0 0.0 0.0 0.00 0.00 0.00 88 1015.8
20260510121619 59 0 0.0 0.0 0.00 0.00 0.00 88 1015.8
20260510121440 58 0 0.0 0.0 0.00 0.00 0.00 88 1015.8
20260510121219 58 0 0.0 0.0 0.00 0.00 0.00 89 1015.8
20260510121019 58 0 0.0 0.0 0.00 0.00 0.00 89 1015.8
20260510120819 58 0 0.0 0.0 0.00 0.00 0.00 89 1015.8
20260510120640 58 0 0.0 0.0 0.00 0.00 0.00 89 1015.8
20260510120419 57 0 0.0 0.0 0.00 0.00 0.00 89 1015.8
20260510120219 57 0 0.0 0.0 0.00 0.00 0.00 89 1015.8
20260510120020 57 0 0.0 0.0 0.00 0.00 0.00 90 1015.8
20260510115819 57 0 0.0 0.0 0.00 0.00 0.00 90 1015.8
20260510115619 57 0 0.0 0.0 0.00 0.00 0.00 90 1015.8
20260510115419 57 188 0.0 1.0 0.00 0.00 0.00 90 1015.8
20260510115219 56 188 0.0 1.0 0.00 0.00 0.00 90 1015.8
20260510115020 56 188 0.0 1.0 0.00 0.00 0.00 90 1015.8
20260510114819 56 188 0.0 1.0 0.00 0.00 0.00 90 1015.8
20260510114619 56 188 0.0 1.0 0.00 0.00 0.00 90 1015.7
20260510114419 56 0 0.0 0.0 0.00 0.00 0.00 89 1015.7
20260510114219 56 0 0.0 0.0 0.00 0.00 0.00 89 1015.7
20260510114019 56 0 0.0 0.0 0.00 0.00 0.00 89 1015.7
20260510113819 56 0 0.0 0.0 0.00 0.00 0.00 89 1015.6
20260510113619 56 0 0.0 0.0 0.00 0.00 0.00 89 1015.6
20260510113419 56 0 0.0 0.0 0.00 0.00 0.00 89 1015.6
20260510113219 55 0 0.0 0.0 0.00 0.00 0.00 89 1015.7
20260510113019 55 0 0.0 0.0 0.00 0.00 0.00 89 1015.7
20260510112840 55 0 0.0 0.0 0.00 0.00 0.00 89 1015.7
20260510112619 55 0 0.0 0.0 0.00 0.00 0.00 90 1015.8
20260510112419 55 167 0.0 2.0 0.00 0.00 0.00 90 1015.7
20260510112219 55 167 0.0 2.0 0.00 0.00 0.00 90 1015.6
20260510112019 55 167 0.0 2.0 0.00 0.00 0.00 90 1015.8
20260510111819 55 167 0.0 2.0 0.00 0.00 0.00 90 1015.6
20260510111640 55 167 0.0 2.0 0.00 0.00 0.00 90 1015.5
20260510111419 55 167 0.0 1.0 0.00 0.00 0.00 90 1015.6
20260510111240 55 0 0.0 0.0 0.00 0.00 0.00 90 1015.8
20260510111019 55 0 0.0 0.0 0.00 0.00 0.00 90 1015.8
20260510110819 55 165 0.0 1.0 0.00 0.00 0.00 90 1015.6
20260510110619 55 193 0.0 1.0 0.00 0.00 0.00 90 1015.5
20260510110419 55 208 0.0 1.0 0.00 0.00 0.00 90 1015.6
20260510110219 55 213 0.0 1.0 0.00 0.00 0.00 90 1015.7
20260510110019 54 263 0.0 2.0 0.00 0.00 0.00 90 1015.5
20260510105819 54 268 0.0 3.0 0.00 0.00 0.00 91 1015.3
20260510105619 54 272 0.0 3.0 0.00 0.00 0.00 91 1015.7
20260510105419 54 273 0.0 3.0 0.00 0.00 0.00 92 1015.6
20260510105240 54 273 0.0 3.0 0.00 0.00 0.00 92 1015.6
20260510105040 53 268 0.0 3.0 0.00 0.00 0.00 92 1015.3
20260510104819 53 265 0.0 3.0 0.00 0.00 0.00 92 1015.4
20260510104619 53 268 0.0 1.0 0.00 0.00 0.00 93 1015.5
20260510104419 53 0 0.0 0.0 0.00 0.00 0.00 93 1015.2
20260510104219 52 0 0.0 0.0 0.00 0.00 0.00 93 1015.0
20260510104019 52 0 0.0 0.0 0.00 0.00 0.00 92 1014.9
20260510103820 52 0 0.0 0.0 0.00 0.00 0.00 92 1014.8
20260510103641 52 0 0.0 0.0 0.00 0.00 0.00 92 1014.8
20260510103419 52 0 0.0 0.0 0.00 0.00 0.00 92 1014.7
20260510103220 52 0 0.0 0.0 0.00 0.00 0.00 92 1014.7
20260510103019 52 0 0.0 0.0 0.00 0.00 0.00 92 1014.6
20260510102819 53 0 0.0 0.0 0.00 0.00 0.00 92 1014.6
20260510102619 53 0 0.0 0.0 0.00 0.00 0.00 92 1014.6
20260510102419 53 0 0.0 0.0 0.00 0.00 0.00 92 1014.6
20260510102219 53 0 0.0 0.0 0.00 0.00 0.00 92 1014.6
20260510102040 53 0 0.0 0.0 0.00 0.00 0.00 92 1014.6
20260510101819 53 0 0.0 0.0 0.00 0.00 0.00 92 1014.6
20260510101619 53 0 0.0 0.0 0.00 0.00 0.00 93 1014.5
20260510101419 53 0 0.0 0.0 0.00 0.00 0.00 93 1014.6
20260510101219 53 0 0.0 0.0 0.00 0.00 0.00 93 1014.6
20260510101019 53 0 0.0 0.0 0.00 0.00 0.00 93 1014.6
20260510100819 53 0 0.0 0.0 0.00 0.00 0.00 93 1014.6
20260510100641 53 0 0.0 0.0 0.00 0.00 0.00 93 1014.5
20260510100419 53 0 0.0 0.0 0.00 0.00 0.00 93 1014.5
20260510100240 53 0 0.0 0.0 0.00 0.00 0.00 93 1014.5
20260510100019 53 0 0.0 0.0 0.00 0.00 0.00 93 1014.5
20260510095820 53 0 0.0 0.0 0.00 0.00 0.00 93 1014.5
20260510095619 53 0 0.0 0.0 0.00 0.00 0.00 93 1014.4
20260510095419 53 0 0.0 0.0 0.00 0.00 0.00 93 1014.4
20260510095219 53 0 0.0 0.0 0.00 0.00 0.00 93 1014.4
20260510095019 53 0 0.0 0.0 0.00 0.00 0.00 93 1014.4
20260510094819 53 0 0.0 0.0 0.00 0.00 0.00 93 1014.3
20260510094619 53 0 0.0 0.0 0.00 0.00 0.00 93 1014.2
20260510094440 53 0 0.0 0.0 0.00 0.00 0.00 93 1014.2
20260510094219 53 0 0.0 0.0 0.00 0.00 0.00 93 1014.2
20260510094040 53 0 0.0 0.0 0.00 0.00 0.00 93 1014.2
20260510093841 53 0 0.0 0.0 0.00 0.00 0.00 93 1014.2
20260510093640 53 0 0.0 0.0 0.00 0.00 0.00 93 1014.1
20260510093419 53 0 0.0 0.0 0.00 0.00 0.00 93 1014.1
20260510093219 53 0 0.0 0.0 0.00 0.00 0.00 93 1014.3
20260510093040 53 0 0.0 0.0 0.00 0.00 0.00 93 1014.1
20260510092842 53 0 0.0 0.0 0.00 0.00 0.00 93 1014.0
20260510092619 53 0 0.0 0.0 0.00 0.00 0.00 93 1014.0
20260510092419 53 0 0.0 0.0 0.00 0.00 0.00 93 1014.1
20260510092240 53 0 0.0 0.0 0.00 0.00 0.00 93 1014.0
20260510092019 53 0 0.0 0.0 0.00 0.00 0.00 92 1014.0
20260510091819 53 0 0.0 0.0 0.00 0.00 0.00 92 1014.0
20260510091619 53 0 0.0 0.0 0.00 0.00 0.00 92 1014.0
20260510091419 53 0 0.0 0.0 0.00 0.00 0.00 93 1014.0
20260510091219 53 0 0.0 0.0 0.00 0.00 0.00 93 1014.0
20260510091019 53 0 0.0 0.0 0.00 0.00 0.00 93 1014.0
20260510090820 53 0 0.0 0.0 0.00 0.00 0.00 92 1014.0
20260510090619 53 0 0.0 0.0 0.00 0.00 0.00 92 1013.9
20260510090440 53 0 0.0 0.0 0.00 0.00 0.00 92 1013.9
20260510090219 53 0 0.0 0.0 0.00 0.00 0.00 92 1013.9
20260510090019 53 0 0.0 0.0 0.00 0.00 0.00 92 1013.9
20260510085841 53 0 0.0 0.0 0.00 0.00 0.00 92 1013.8
20260510085619 53 0 0.0 0.0 0.00 0.00 0.00 92 1013.8
20260510085419 53 0 0.0 0.0 0.00 0.00 0.00 92 1013.8
20260510085219 53 0 0.0 0.0 0.00 0.00 0.00 92 1013.8
20260510085040 53 0 0.0 0.0 0.00 0.00 0.00 92 1013.7
20260510084841 53 0 0.0 0.0 0.00 0.00 0.00 92 1013.7
20260510084619 53 0 0.0 0.0 0.00 0.00 0.00 92 1013.6
20260510084419 53 0 0.0 0.0 0.00 0.00 0.00 92 1013.6
20260510084219 53 0 0.0 0.0 0.00 0.00 0.00 92 1013.7
20260510084019 53 0 0.0 0.0 0.00 0.00 0.00 92 1013.7
20260510083819 53 0 0.0 0.0 0.00 0.00 0.00 92 1013.6
20260510083619 53 0 0.0 0.0 0.00 0.00 0.00 92 1013.7
20260510083419 53 0 0.0 0.0 0.00 0.00 0.00 92 1013.7
20260510083219 53 0 0.0 0.0 0.00 0.00 0.00 92 1013.7
20260510083019 54 0 0.0 0.0 0.00 0.00 0.00 92 1013.8
20260510082819 54 0 0.0 0.0 0.00 0.00 0.00 92 1013.8
20260510082640 54 0 0.0 0.0 0.00 0.00 0.00 92 1013.8
20260510082419 54 0 0.0 0.0 0.00 0.00 0.00 92 1013.8
20260510082219 54 0 0.0 0.0 0.00 0.00 0.00 92 1013.8
20260510082020 54 0 0.0 0.0 0.00 0.00 0.00 92 1013.9
20260510081819 54 0 0.0 0.0 0.00 0.00 0.00 92 1013.9
20260510081619 54 0 0.0 0.0 0.00 0.00 0.00 92 1013.9
20260510081419 54 0 0.0 0.0 0.00 0.00 0.00 92 1013.8
20260510081240 54 0 0.0 0.0 0.00 0.00 0.00 91 1013.8
20260510081040 54 0 0.0 0.0 0.00 0.00 0.00 91 1013.7
20260510080820 54 0 0.0 0.0 0.00 0.00 0.00 91 1013.7
20260510080619 54 0 0.0 0.0 0.00 0.00 0.00 91 1013.7
20260510080419 54 0 0.0 0.0 0.00 0.00 0.00 91 1013.7
20260510080219 54 0 0.0 0.0 0.00 0.00 0.00 91 1013.6
20260510080040 54 0 0.0 0.0 0.00 0.00 0.00 91 1013.5
20260510075819 54 0 0.0 0.0 0.00 0.00 0.00 91 1013.5
20260510075640 54 0 0.0 0.0 0.00 0.00 0.00 92 1013.4
20260510075419 54 0 0.0 0.0 0.00 0.00 0.00 92 1013.4
20260510075219 54 0 0.0 0.0 0.00 0.00 0.00 92 1013.4
20260510075019 54 0 0.0 0.0 0.00 0.00 0.00 92 1013.4
20260510074819 54 0 0.0 0.0 0.00 0.00 0.00 92 1013.4
20260510074619 54 0 0.0 0.0 0.00 0.00 0.00 92 1013.3
20260510074419 54 0 0.0 0.0 0.00 0.00 0.00 92 1013.3
20260510074219 54 0 0.0 0.0 0.00 0.00 0.00 92 1013.2
20260510074019 54 0 0.0 0.0 0.00 0.00 0.00 92 1013.1
20260510073819 54 0 0.0 0.0 0.00 0.00 0.00 92 1013.0
20260510073619 54 0 0.0 0.0 0.00 0.00 0.00 92 1013.0
20260510073419 54 0 0.0 0.0 0.00 0.00 0.00 92 1013.0
20260510073219 54 0 0.0 0.0 0.00 0.00 0.00 92 1013.0
20260510073019 54 0 0.0 0.0 0.00 0.00 0.00 92 1013.0
20260510072840 54 0 0.0 0.0 0.00 0.00 0.00 92 1013.0
20260510072619 54 0 0.0 0.0 0.00 0.00 0.00 91 1013.0
20260510072440 54 0 0.0 0.0 0.00 0.00 0.00 91 1012.9
20260510072219 54 0 0.0 0.0 0.00 0.00 0.00 91 1012.9
20260510072019 54 0 0.0 0.0 0.00 0.00 0.00 91 1013.0
20260510071819 54 0 0.0 0.0 0.00 0.00 0.00 91 1013.0
20260510071619 54 0 0.0 0.0 0.00 0.00 0.00 91 1013.0
20260510071419 54 0 0.0 0.0 0.00 0.00 0.00 91 1013.0
20260510071219 54 0 0.0 0.0 0.00 0.00 0.00 91 1013.1
20260510071019 54 0 0.0 0.0 0.00 0.00 0.00 91 1013.0
20260510070819 54 0 0.0 0.0 0.00 0.00 0.00 91 1013.1
20260510070619 54 0 0.0 0.0 0.00 0.00 0.00 91 1013.2
20260510070440 54 0 0.0 0.0 0.00 0.00 0.00 91 1013.2
20260510070219 54 0 0.0 0.0 0.00 0.00 0.00 90 1013.2
20260510070019 54 0 0.0 0.0 0.00 0.00 0.00 90 1013.2
20260510065820 54 0 0.0 0.0 0.00 0.00 0.00 90 1013.2
20260510065619 54 0 0.0 0.0 0.00 0.00 0.00 90 1013.2
20260510065419 54 0 0.0 0.0 0.00 0.00 0.00 90 1013.2
20260510065219 54 0 0.0 0.0 0.00 0.00 0.00 90 1013.2
20260510065019 54 0 0.0 0.0 0.00 0.00 0.00 90 1013.2
20260510064819 55 0 0.0 0.0 0.00 0.00 0.00 90 1013.2
20260510064619 55 0 0.0 0.0 0.00 0.00 0.00 90 1013.2
20260510064419 55 0 0.0 0.0 0.00 0.00 0.00 90 1013.2
20260510064219 55 0 0.0 0.0 0.00 0.00 0.00 90 1013.2
20260510064019 55 0 0.0 0.0 0.00 0.00 0.00 90 1013.1
20260510063819 55 0 0.0 0.0 0.00 0.00 0.00 90 1013.1
20260510063619 55 0 0.0 0.0 0.00 0.00 0.00 90 1013.2
20260510063419 55 0 0.0 0.0 0.00 0.00 0.00 90 1013.1
20260510063219 55 0 0.0 0.0 0.00 0.00 0.00 90 1013.2
20260510063019 55 0 0.0 0.0 0.00 0.00 0.00 90 1013.1
20260510062840 55 0 0.0 0.0 0.00 0.00 0.00 90 1013.1
20260510062619 55 0 0.0 0.0 0.00 0.00 0.00 90 1013.1
20260510062419 55 0 0.0 0.0 0.00 0.00 0.00 90 1013.2
20260510062219 55 0 0.0 0.0 0.00 0.00 0.00 89 1013.2
20260510062019 55 0 0.0 0.0 0.00 0.00 0.00 89 1013.2
20260510061819 55 0 0.0 0.0 0.00 0.00 0.00 89 1013.2
20260510061619 55 0 0.0 0.0 0.00 0.00 0.00 89 1013.2
20260510061419 55 0 0.0 0.0 0.00 0.00 0.00 89 1013.2
20260510061219 55 0 0.0 0.0 0.00 0.00 0.00 89 1013.2
20260510061019 55 0 0.0 0.0 0.00 0.00 0.00 89 1013.2
20260510060819 55 0 0.0 0.0 0.00 0.00 0.00 89 1013.2
20260510060619 55 0 0.0 0.0 0.00 0.00 0.00 89 1013.2
20260510060419 55 0 0.0 0.0 0.00 0.00 0.00 89 1013.2
20260510060219 55 0 0.0 0.0 0.00 0.00 0.00 89 1013.2
20260510060040 55 0 0.0 0.0 0.00 0.00 0.00 89 1013.2
20260510055820 55 0 0.0 0.0 0.00 0.00 0.00 89 1013.2
20260510055640 55 0 0.0 0.0 0.00 0.00 0.00 89 1013.2
20260510055419 55 0 0.0 0.0 0.00 0.00 0.00 89 1013.2
20260510055240 55 0 0.0 0.0 0.00 0.00 0.00 89 1013.2
20260510055019 55 0 0.0 0.0 0.00 0.00 0.00 89 1013.2
20260510054819 55 0 0.0 0.0 0.00 0.00 0.00 89 1013.2
20260510054619 55 0 0.0 0.0 0.00 0.00 0.00 89 1013.1
20260510054419 56 0 0.0 0.0 0.00 0.00 0.00 88 1013.2
20260510054219 56 0 0.0 0.0 0.00 0.00 0.00 88 1013.1
20260510054020 56 0 0.0 0.0 0.00 0.00 0.00 89 1013.1
20260510053840 56 0 0.0 0.0 0.00 0.00 0.00 89 1013.1
20260510053619 56 0 0.0 0.0 0.00 0.00 0.00 89 1013.1
20260510053419 56 0 0.0 0.0 0.00 0.00 0.00 89 1013.1
20260510053219 56 0 0.0 0.0 0.00 0.00 0.00 88 1013.1
20260510053019 56 0 0.0 0.0 0.00 0.00 0.00 88 1013.1
20260510052819 56 0 0.0 0.0 0.00 0.00 0.00 87 1013.1
20260510052640 56 0 0.0 0.0 0.00 0.00 0.00 87 1013.1
20260510052419 56 0 0.0 0.0 0.00 0.00 0.00 87 1013.1
20260510052219 56 0 0.0 0.0 0.00 0.00 0.00 87 1013.1
20260510052019 56 0 0.0 0.0 0.00 0.00 0.00 87 1013.1
20260510051819 56 0 0.0 0.0 0.00 0.00 0.00 87 1013.1
20260510051640 57 0 0.0 0.0 0.00 0.00 0.00 87 1013.1
20260510051419 57 0 0.0 0.0 0.00 0.00 0.00 87 1013.1
20260510051240 57 0 0.0 0.0 0.00 0.00 0.00 87 1013.1
20260510051019 57 0 0.0 0.0 0.00 0.00 0.00 87 1013.1
20260510050819 57 0 0.0 0.0 0.00 0.00 0.00 87 1013.1
20260510050619 57 0 0.0 0.0 0.00 0.00 0.00 87 1013.2
20260510050419 57 0 0.0 0.0 0.00 0.00 0.00 87 1013.2
20260510050220 57 0 0.0 0.0 0.00 0.00 0.00 87 1013.1
20260510050019 57 0 0.0 0.0 0.00 0.00 0.00 87 1013.1
20260510045819 57 0 0.0 0.0 0.00 0.00 0.00 87 1013.1
20260510045619 57 0 0.0 0.0 0.00 0.00 0.00 87 1013.1
20260510045440 57 0 0.0 0.0 0.00 0.00 0.00 87 1013.1
20260510045219 57 0 0.0 0.0 0.00 0.00 0.00 87 1013.1
20260510045040 57 0 0.0 0.0 0.00 0.00 0.00 86 1013.1
20260510044819 57 0 0.0 0.0 0.00 0.00 0.00 86 1013.0
20260510044619 58 0 0.0 0.0 0.00 0.00 0.00 85 1013.0
20260510044420 58 0 0.0 0.0 0.00 0.00 0.00 85 1013.0
20260510044240 58 0 0.0 0.0 0.00 0.00 0.00 85 1013.0
20260510044020 58 0 0.0 0.0 0.00 0.00 0.00 86 1013.0
20260510043819 58 0 0.0 0.0 0.00 0.00 0.00 85 1012.9
20260510043620 58 0 0.0 0.0 0.00 0.00 0.00 85 1012.9
20260510043419 58 0 0.0 0.0 0.00 0.00 0.00 85 1012.9
20260510043219 58 0 0.0 0.0 0.00 0.00 0.00 85 1012.9
20260510043019 58 0 0.0 0.0 0.00 0.00 0.00 85 1012.9
20260510042819 58 0 0.0 0.0 0.00 0.00 0.00 85 1012.9
20260510042640 58 0 0.0 0.0 0.00 0.00 0.00 84 1012.9
20260510042419 58 0 0.0 0.0 0.00 0.00 0.00 84 1012.9
20260510042219 58 0 0.0 0.0 0.00 0.00 0.00 84 1012.9
20260510042020 58 0 0.0 0.0 0.00 0.00 0.00 84 1012.9
20260510041819 58 0 0.0 0.0 0.00 0.00 0.00 84 1012.9
20260510041619 58 0 0.0 0.0 0.00 0.00 0.00 84 1013.0
20260510041421 58 0 0.0 0.0 0.00 0.00 0.00 84 1012.9
20260510041219 58 0 0.0 0.0 0.00 0.00 0.00 83 1013.0
20260510041040 58 0 0.0 0.0 0.00 0.00 0.00 82 1012.9
20260510040840 58 0 0.0 0.0 0.00 0.00 0.00 82 1012.9
20260510040619 58 0 0.0 0.0 0.00 0.00 0.00 81 1013.0
20260510040419 59 0 0.0 0.0 0.00 0.00 0.00 81 1013.0
20260510040219 59 0 0.0 0.0 0.00 0.00 0.00 82 1013.0
20260510040019 59 0 0.0 0.0 0.00 0.00 0.00 81 1013.0
20260510035819 59 0 0.0 0.0 0.00 0.00 0.00 81 1013.0
20260510035619 59 0 0.0 0.0 0.00 0.00 0.00 81 1013.0
20260510035440 59 0 0.0 0.0 0.00 0.00 0.00 81 1013.0
20260510035219 59 0 0.0 0.0 0.00 0.00 0.00 81 1013.1
20260510035040 59 0 0.0 0.0 0.00 0.00 0.00 81 1013.1
20260510034819 59 0 0.0 0.0 0.00 0.00 0.00 82 1013.1
20260510034619 59 0 0.0 0.0 0.00 0.00 0.00 82 1013.1
20260510034440 59 0 0.0 0.0 0.00 0.00 0.00 81 1013.1
20260510034219 59 0 0.0 0.0 0.00 0.00 0.00 81 1013.1
20260510034019 59 0 0.0 0.0 0.00 0.00 0.00 81 1013.0
20260510033819 60 0 0.0 0.0 0.00 0.00 0.00 81 1013.1
20260510033640 60 0 0.0 0.0 0.00 0.00 0.00 81 1013.1
20260510033420 60 0 0.0 0.0 0.00 0.00 0.00 81 1013.1
20260510033219 60 0 0.0 0.0 0.00 0.00 0.00 81 1013.1
20260510033019 60 0 0.0 0.0 0.00 0.00 0.00 81 1013.2
20260510032819 60 0 0.0 0.0 0.00 0.00 0.00 81 1013.1
20260510032619 60 0 0.0 0.0 0.00 0.00 0.00 80 1013.0
20260510032419 60 0 0.0 0.0 0.00 0.00 0.00 79 1013.1
20260510032219 60 0 0.0 0.0 0.00 0.00 0.00 78 1013.1
20260510032019 60 0 0.0 0.0 0.00 0.00 0.00 78 1013.1
20260510031819 60 0 0.0 0.0 0.00 0.00 0.00 78 1013.1
20260510031641 60 0 0.0 0.0 0.00 0.00 0.00 78 1013.1
20260510031419 60 0 0.0 0.0 0.00 0.00 0.00 77 1013.1
20260510031219 61 0 0.0 0.0 0.00 0.00 0.00 77 1013.1
20260510031020 61 0 0.0 0.0 0.00 0.00 0.00 77 1013.1
20260510030821 61 0 0.0 0.0 0.00 0.00 0.00 76 1013.1
20260510030640 61 0 0.0 0.0 0.00 0.00 0.00 76 1013.1
20260510030419 61 0 0.0 0.0 0.00 0.00 0.00 76 1013.1
20260510030219 61 0 0.0 0.0 0.00 0.00 0.00 76 1013.1
20260510030040 61 0 0.0 0.0 0.00 0.00 0.00 75 1013.1
20260510025819 62 0 0.0 0.0 0.00 0.00 0.00 75 1013.1
20260510025619 62 0 0.0 0.0 0.00 0.00 0.00 75 1013.0
20260510025420 62 0 0.0 0.0 0.00 0.00 0.00 75 1013.0
20260510025219 62 0 0.0 0.0 0.00 0.00 0.00 75 1013.0
20260510025019 62 0 0.0 0.0 0.00 0.00 0.00 75 1013.0
20260510024819 62 0 0.0 0.0 0.00 0.00 0.00 75 1013.0
20260510024619 62 0 0.0 0.0 0.00 0.00 0.00 75 1013.0
20260510024419 62 0 0.0 0.0 0.00 0.00 0.00 75 1013.0
20260510024219 62 0 0.0 0.0 0.00 0.00 0.00 76 1013.0
20260510024019 62 0 0.0 0.0 0.00 0.00 0.00 75 1013.1
20260510023819 62 0 0.0 0.0 0.00 0.00 0.00 75 1013.0
20260510023619 62 0 0.0 0.0 0.00 0.00 0.00 75 1013.0
20260510023419 63 0 0.0 0.0 0.00 0.00 0.00 74 1013.0
20260510023219 63 0 0.0 0.0 0.00 0.00 0.00 74 1012.9
20260510023019 63 0 0.0 0.0 0.00 0.00 0.00 73 1012.9
20260510022841 63 0 0.0 0.0 0.00 0.00 0.00 73 1012.9
20260510022619 63 0 0.0 0.0 0.00 0.00 0.00 74 1012.9
20260510022419 63 0 0.0 0.0 0.00 0.00 0.00 74 1012.9
20260510022219 63 0 0.0 0.0 0.00 0.00 0.00 73 1012.9
20260510022040 64 0 0.0 0.0 0.00 0.00 0.00 73 1012.8
20260510021819 64 0 0.0 0.0 0.00 0.00 0.00 72 1012.8
20260510021619 64 0 0.0 0.0 0.00 0.00 0.00 72 1012.7
20260510021419 64 0 0.0 0.0 0.00 0.00 0.00 71 1012.7
20260510021240 64 0 0.0 0.0 0.00 0.00 0.00 72 1012.7
20260510021019 64 0 0.0 0.0 0.00 0.00 0.00 71 1012.6
20260510020819 64 0 0.0 0.0 0.00 0.00 0.00 71 1012.6
20260510020619 64 0 0.0 0.0 0.00 0.00 0.00 71 1012.5
20260510020420 64 0 0.0 0.0 0.00 0.00 0.00 71 1012.5
20260510020220 65 0 0.0 0.0 0.00 0.00 0.00 70 1012.4
20260510020040 65 0 0.0 0.0 0.00 0.00 0.00 70 1012.4
20260510015819 65 0 0.0 0.0 0.00 0.00 0.00 71 1012.3
20260510015620 65 0 0.0 0.0 0.00 0.00 0.00 71 1012.3
20260510015420 65 0 0.0 0.0 0.00 0.00 0.00 71 1012.3
20260510015240 65 0 0.0 0.0 0.00 0.00 0.00 71 1012.2
20260510015020 65 0 0.0 0.0 0.00 0.00 0.00 71 1012.1
20260510014819 65 0 0.0 0.0 0.00 0.00 0.00 70 1012.1
20260510014619 65 0 0.0 0.0 0.00 0.00 0.00 70 1012.1
20260510014442 65 0 0.0 0.0 0.00 0.00 0.00 69 1012.0
20260510014219 66 0 0.0 0.0 0.00 0.00 0.00 69 1012.0
20260510014020 66 0 0.0 0.0 0.00 0.00 0.00 68 1012.0
20260510013819 66 0 0.0 0.0 0.00 0.00 0.00 68 1012.0
20260510013619 66 0 0.0 0.0 0.00 0.00 0.00 68 1011.9
20260510013420 66 0 0.0 0.0 0.00 0.00 0.00 68 1011.9
20260510013240 67 0 0.0 0.0 0.00 0.00 0.00 68 1011.9
20260510013040 67 0 0.0 0.0 0.00 0.00 0.00 68 1011.9
20260510012819 67 0 0.0 0.0 0.00 0.00 0.00 68 1011.9
20260510012619 67 0 0.0 0.0 0.00 0.00 0.00 68 1011.8
20260510012419 67 0 0.0 0.0 0.00 0.00 0.00 67 1011.7
20260510012221 67 0 0.0 0.0 0.00 0.00 0.00 67 1011.7
20260510012040 68 0 0.0 0.0 0.00 0.00 0.00 67 1011.7
20260510011819 68 0 0.0 0.0 0.00 0.00 0.00 67 1011.6
20260510011619 68 0 0.0 0.0 0.00 0.00 0.00 67 1011.6
20260510011419 68 0 0.0 0.0 0.00 0.00 0.00 66 1011.6
20260510011219 68 0 0.0 0.0 0.00 0.00 0.00 66 1011.6
20260510011019 68 0 0.0 0.0 0.00 0.00 0.00 65 1011.6
20260510010819 68 0 0.0 0.0 0.00 0.00 0.00 65 1011.6
20260510010619 69 0 0.0 0.0 0.00 0.00 0.00 65 1011.5
20260510010419 69 0 0.0 0.0 0.00 0.00 0.00 65 1011.5
20260510010220 69 0 0.0 0.0 0.00 0.00 0.00 65 1011.5
20260510010019 69 0 0.0 0.0 0.00 0.00 0.00 65 1011.4
20260510005819 69 0 0.0 0.0 0.00 0.00 0.00 64 1011.4
20260510005619 70 0 0.0 0.0 0.00 0.00 0.00 64 1011.3
20260510005419 70 0 0.0 0.0 0.00 0.00 0.00 64 1011.3
20260510005220 70 0 0.0 0.0 0.00 0.00 0.00 64 1011.3
20260510005019 70 0 0.0 0.0 0.00 0.00 0.00 64 1011.3
20260510004819 70 0 0.0 0.0 0.00 0.00 0.00 63 1011.3
20260510004640 70 0 0.0 0.0 0.00 0.00 0.00 63 1011.2
20260510004442 71 0 0.0 0.0 0.00 0.00 0.00 63 1011.2
20260510004220 71 0 0.0 0.0 0.00 0.00 0.00 63 1011.2
20260510004040 71 0 0.0 0.0 0.00 0.00 0.00 63 1011.1
20260510003820 71 0 0.0 0.0 0.00 0.00 0.00 62 1011.2
20260510003620 71 0 0.0 0.0 0.00 0.00 0.00 62 1011.1
20260510003420 72 0 0.0 0.0 0.00 0.00 0.00 62 1011.1
20260510003219 72 0 0.0 0.0 0.00 0.00 0.00 62 1011.2
20260510003019 72 0 0.0 0.0 0.00 0.00 0.00 62 1011.2
20260510002819 72 0 0.0 0.0 0.00 0.00 0.00 62 1011.1
20260510002619 72 0 0.0 0.0 0.00 0.00 0.00 61 1011.2
20260510002420 72 0 0.0 0.0 0.00 0.00 0.00 61 1011.1
20260510002220 72 0 0.0 0.0 0.00 0.00 0.00 61 1011.1
20260510002041 73 0 0.0 0.0 0.00 0.00 0.00 61 1011.1
20260510001819 73 0 0.0 0.0 0.00 0.00 0.00 61 1011.1
20260510001640 73 0 0.0 0.0 0.00 0.00 0.00 61 1011.0
20260510001440 73 0 0.0 0.0 0.00 0.00 0.00 61 1011.0
20260510001219 73 0 0.0 0.0 0.00 0.00 0.00 61 1010.9
20260510001020 73 221 0.0 1.0 0.00 0.00 0.00 60 1010.9
20260510000819 73 221 0.0 1.0 0.00 0.00 0.00 60 1010.9
20260510000619 74 221 0.0 1.0 0.00 0.00 0.00 60 1010.9
20260510000441 74 221 0.0 1.0 0.00 0.00 0.00 60 1010.9
20260510000220 74 221 0.0 1.0 0.00 0.00 0.00 59 1010.8
20260510000020 74 221 0.0 1.0 0.00 0.00 0.00 59 1010.9
20260509235819 74 221 0.0 1.0 0.00 0.00 0.00 59 1010.9
20260509235641 74 223 0.0 2.0 0.00 0.00 0.00 59 1010.9
20260509235420 74 224 0.0 2.0 0.00 0.00 0.00 58 1010.9
20260509235219 75 224 0.0 2.0 0.00 0.00 0.00 58 1010.9
20260509235042 75 223 0.0 2.0 0.00 0.00 0.00 58 1011.0
20260509234819 75 223 0.0 2.0 0.00 0.00 0.00 57 1011.0
20260509234640 75 223 0.0 2.0 0.00 0.00 0.00 58 1011.0
20260509234419 75 219 0.0 1.0 0.00 0.00 0.00 58 1010.9
20260509234219 75 219 0.0 1.0 0.00 0.00 0.00 58 1010.9
20260509234019 75 219 0.0 1.0 0.00 0.00 0.00 58 1011.0
20260509233840 75 219 0.0 1.0 0.00 0.00 0.00 58 1011.0
20260509233619 75 219 0.0 1.0 0.00 0.00 0.00 58 1011.0
20260509233419 76 217 0.0 1.0 0.00 0.00 0.00 58 1011.0
20260509233219 76 193 0.0 2.0 0.00 0.00 0.00 57 1011.0
20260509233040 76 187 0.0 2.0 0.00 0.00 0.00 56 1010.9
20260509232841 76 191 0.0 2.0 0.00 0.00 0.00 56 1011.0
20260509232620 76 190 0.0 2.0 0.00 0.00 0.00 56 1011.0
20260509232419 76 208 0.0 2.0 0.00 0.00 0.00 57 1011.0
20260509232219 76 227 0.0 1.0 0.00 0.00 0.00 57 1011.0
20260509232020 76 227 0.0 1.0 0.00 0.00 0.00 56 1011.0
20260509231820 76 227 0.0 1.0 0.00 0.00 0.00 56 1011.0
20260509231619 76 226 0.0 1.0 0.00 0.00 0.00 56 1010.9
20260509231419 76 223 0.0 2.0 0.00 0.00 0.00 58 1011.0
20260509231240 76 224 0.0 2.0 0.00 0.00 0.00 57 1011.0
20260509231019 77 224 0.0 2.0 0.00 0.00 0.00 57 1010.9
20260509230840 77 222 0.0 2.0 0.00 0.00 0.00 56 1010.9
20260509230619 77 217 0.0 2.0 0.00 0.00 0.00 56 1011.0
20260509230419 77 215 0.0 2.0 0.00 0.00 0.00 57 1011.0
20260509230219 77 214 0.0 2.0 0.00 0.00 0.00 56 1011.0
20260509230019 77 214 0.0 2.0 0.00 0.00 0.00 56 1010.9
20260509225840 77 213 0.0 2.0 0.00 0.00 0.00 56 1011.0
20260509225619 77 219 0.0 1.0 0.00 0.00 0.00 57 1011.0
20260509225419 77 224 0.0 1.0 0.00 0.00 0.00 57 1010.9
20260509225219 77 231 0.0 1.0 0.00 0.00 0.00 57 1011.0
20260509225019 77 271 0.0 1.0 0.00 0.00 0.00 56 1010.9
20260509224819 77 271 0.0 1.0 0.00 0.00 0.00 55 1010.9
20260509224619 77 268 0.0 2.0 0.00 0.00 0.00 55 1010.9
20260509224419 77 268 0.0 2.0 0.00 0.00 0.00 56 1010.9
20260509224219 77 254 0.0 2.0 0.00 0.00 0.00 56 1010.9
20260509224019 77 247 0.0 2.0 0.00 0.00 0.00 56 1010.9
20260509223840 77 237 0.0 2.0 0.00 0.00 0.00 56 1010.9
20260509223619 77 228 0.0 2.0 0.00 0.00 0.00 56 1010.8
20260509223419 77 227 0.0 2.0 0.00 0.00 0.00 57 1010.7
20260509223219 77 225 0.0 2.0 0.00 0.00 0.00 57 1010.8
20260509223019 77 223 0.0 2.0 0.00 0.00 0.00 56 1010.8
20260509222820 77 219 0.0 2.0 0.00 0.00 0.00 57 1010.8
20260509222640 77 221 0.0 2.0 0.00 0.00 0.00 56 1010.7
20260509222421 77 224 0.0 2.0 0.00 0.00 0.00 55 1010.7
20260509222242 77 235 0.0 2.0 0.00 0.00 0.00 56 1010.7
20260509222020 77 238 0.0 2.0 0.00 0.00 0.00 55 1010.6
20260509221819 77 244 0.0 2.0 0.00 0.00 0.00 54 1010.6
20260509221640 77 250 0.0 2.0 0.00 0.00 0.00 55 1010.6
20260509221440 77 271 0.0 2.0 0.00 0.00 0.00 54 1010.6
20260509221219 77 252 0.0 1.0 0.00 0.00 0.00 54 1010.6
20260509221019 77 282 0.0 5.0 0.00 0.00 0.00 56 1010.6
20260509220819 77 286 0.0 5.0 0.00 0.00 0.00 57 1010.5
20260509220619 77 328 0.0 5.0 0.00 0.00 0.00 57 1010.6
20260509220419 77 328 0.0 5.0 0.00 0.00 0.00 54 1010.6
20260509220220 77 329 0.0 5.0 0.00 0.00 0.00 55 1010.5
20260509220019 77 20 0.0 2.0 0.00 0.00 0.00 55 1010.5
20260509215841 77 31 0.0 2.0 0.00 0.00 0.00 56 1010.5
20260509215619 77 0 0.0 0.0 0.00 0.00 0.00 56 1010.5
20260509215419 77 0 0.0 0.0 0.00 0.00 0.00 56 1010.5
20260509215219 77 224 0.0 3.0 0.00 0.00 0.00 56 1010.5
20260509215019 77 225 0.0 3.0 0.00 0.00 0.00 56 1010.5
20260509214819 77 227 0.0 3.0 0.00 0.00 0.00 58 1010.5
20260509214619 77 227 0.0 3.0 0.00 0.00 0.00 59 1010.5
20260509214420 77 210 0.0 3.0 0.00 0.00 0.00 59 1010.5
20260509214240 77 201 0.0 2.0 0.00 0.00 0.00 59 1010.5
20260509214040 77 189 0.0 2.0 0.00 0.00 0.00 59 1010.5
20260509213820 77 178 0.0 2.0 0.00 0.00 0.00 59 1010.4
20260509213620 77 182 0.0 2.0 0.00 0.00 0.00 59 1010.5
20260509213419 77 198 0.0 3.0 0.00 0.00 0.00 59 1010.4
20260509213219 77 206 0.0 3.0 0.00 0.00 0.00 58 1010.4
20260509213040 77 205 0.0 3.0 0.00 0.00 0.00 57 1010.5
20260509212840 78 205 0.0 3.0 0.00 0.00 0.00 57 1010.5
20260509212641 77 205 0.0 3.0 0.00 0.00 0.00 57 1010.5
20260509212419 78 211 0.0 3.0 0.00 0.00 0.00 57 1010.5
20260509212241 78 211 1.0 3.0 0.00 0.00 0.00 59 1010.5
20260509212019 78 217 1.0 3.0 0.00 0.00 0.00 59 1010.5
20260509211820 78 218 1.0 3.0 0.00 0.00 0.00 59 1010.5
20260509211619 78 218 1.0 3.0 0.00 0.00 0.00 58 1010.5
20260509211419 78 217 0.0 3.0 0.00 0.00 0.00 57 1010.5
20260509211219 78 217 0.0 2.0 0.00 0.00 0.00 58 1010.4
20260509211020 78 216 0.0 2.0 0.00 0.00 0.00 57 1010.4
20260509210819 78 208 0.0 2.0 0.00 0.00 0.00 56 1010.4
20260509210619 78 47 0.0 2.0 0.00 0.00 0.00 56 1010.4
20260509210419 78 332 0.0 1.0 0.00 0.00 0.00 57 1010.5
20260509210241 77 287 0.0 3.0 0.00 0.00 0.00 56 1010.4
20260509210019 77 288 0.0 3.0 0.00 0.00 0.00 55 1010.4
20260509205840 77 286 0.0 3.0 0.00 0.00 0.00 54 1010.4
20260509205619 77 287 0.0 3.0 0.00 0.00 0.00 56 1010.4
20260509205420 77 319 0.0 3.0 0.00 0.00 0.00 56 1010.5
20260509205219 77 344 0.0 3.0 0.00 0.00 0.00 57 1010.5
20260509205019 77 334 0.0 3.0 0.00 0.00 0.00 57 1010.5
20260509204840 77 295 0.0 3.0 0.00 0.00 0.00 57 1010.6
20260509204620 77 283 1.0 3.0 0.00 0.00 0.00 56 1010.5
20260509204420 77 241 1.0 3.0 0.00 0.00 0.00 55 1010.5
20260509204219 77 243 1.0 3.0 0.00 0.00 0.00 56 1010.6
20260509204019 77 245 1.0 3.0 0.00 0.00 0.00 57 1010.6
20260509203819 77 254 1.0 3.0 0.00 0.00 0.00 57 1010.7
20260509203620 77 255 0.0 3.0 0.00 0.00 0.00 55 1010.7
20260509203420 77 340 0.0 3.0 0.00 0.00 0.00 55 1010.7
20260509203241 77 46 0.0 3.0 0.00 0.00 0.00 57 1010.7